Weather History for Sturgis, MI

Change the Weather History Date:

Saturday, September 14, 2013

  Actual Average (KHAI) Record (KHAI)
Temperature  
Mean Temperature 52 °F -  
Max Temperature 68 °F 75 °F 92 °F (1952)
Min Temperature 37 °F 52 °F 32 °F (1963)
Degree Days  
Heating Degree Days 12    
Growing Degree Days 2 (Base 50)    
Moisture  
Dew Point 39 °F    
Average Humidity 65    
Maximum Humidity 100    
Minimum Humidity 32    
Precipitation  
Precipitation 0.00 in - - ()
Sea Level Pressure  
Sea Level Pressure 30.14 in    
Wind  
Wind Speed 0 mph (WSW)    
Max Wind Speed 7 mph    
Max Gust Speed -    
Visibility 10 miles    
Events      
Averages and records for this station are not official NWS values.
T = Trace of Precipitation, MM = Missing Value Source: NWS Daily Summary

Daily Weather History Graph

Daily Weather History Graph

Search for Another Location

Airport:

Trip Planner

Search our weather history database for the weather conditions in past years. The results will help you decide how hot, cold, wet, or windy it might be!

Date:

Astronomy

Sep. 14, 2013 Rise Set
Actual Time 7:21 AM EDT 7:52 PM EDT
Civil Twilight 6:53 AM EDT 8:20 PM EDT
Nautical Twilight 6:20 AM EDT 8:53 PM EDT
Astronomical Twilight 5:46 AM EDT 9:27 PM EDT
Moon 4:36 PM EDT (9/14) 1:48 AM EDT (9/14)
Length of Visible Light 13h 27m
Length of Day
12h 31m
Waxing Gibbous, 72% of the Moon is Illuminated
Sep 14
Waxing Gibbous
Sep 19
Full
Sep 26
Last Quarter
Oct 4
New
Oct 11
First Quarter

Hourly Weather History & Observations

Time (EDT) Temp. Dew Point Humidity Pressure Visibility Wind Dir Wind Speed Gust Speed Precip Events Conditions
12:14 AM 42.8 °F 39.2 °F 87% 30.14 in 10.0 mi Calm Calm - N/A   Clear
12:35 AM 42.8 °F 41.0 °F 93% 30.14 in 10.0 mi Calm Calm - N/A   Clear
12:55 AM 42.8 °F 41.0 °F 93% 30.13 in 10.0 mi Calm Calm - N/A   Clear
1:14 AM 41.0 °F 39.2 °F 93% 30.14 in 10.0 mi Calm Calm - N/A   Clear
1:35 AM 41.0 °F 39.2 °F 93% 30.13 in 10.0 mi Calm Calm - N/A   Clear
1:55 AM 41.0 °F 39.2 °F 93% 30.14 in 10.0 mi Calm Calm - N/A   Clear
2:14 AM 41.0 °F 39.2 °F 93% 30.14 in 10.0 mi Calm Calm - N/A   Clear
2:35 AM 41.0 °F 39.2 °F 93% 30.14 in 10.0 mi Calm Calm - N/A   Clear
2:54 AM 41.0 °F 39.2 °F 93% 30.15 in 10.0 mi Calm Calm - N/A   Clear
3:15 AM 39.2 °F 37.4 °F 93% 30.15 in 10.0 mi Calm Calm - N/A   Clear
3:35 AM 39.2 °F 39.2 °F 100% 30.15 in 10.0 mi Calm Calm - N/A   Clear
3:54 AM 41.0 °F 39.2 °F 93% 30.14 in 10.0 mi Calm Calm - N/A   Clear
4:15 AM 39.2 °F 37.4 °F 93% 30.15 in 10.0 mi Calm Calm - N/A   Clear
4:35 AM 39.2 °F 37.4 °F 93% 30.15 in 10.0 mi Calm Calm - N/A   Clear
4:54 AM 37.4 °F 35.6 °F 93% 30.15 in 10.0 mi Calm Calm - N/A   Clear
5:15 AM 39.2 °F 37.4 °F 93% 30.16 in 10.0 mi Calm Calm - N/A   Clear
5:35 AM 37.4 °F 37.4 °F 100% 30.16 in 10.0 mi Calm Calm - N/A   Clear
5:54 AM 39.2 °F 37.4 °F 93% 30.16 in 10.0 mi Calm Calm - N/A   Clear
6:15 AM 39.2 °F 37.4 °F 93% 30.17 in 10.0 mi Calm Calm - N/A   Clear
6:35 AM 37.4 °F 37.4 °F 100% 30.17 in 10.0 mi Calm Calm - N/A   Clear
6:54 AM 39.2 °F 37.4 °F 93% 30.17 in 10.0 mi Calm Calm - N/A   Clear
7:15 AM 37.4 °F 37.4 °F 100% 30.17 in 10.0 mi Calm Calm - N/A   Clear
7:35 AM 37.4 °F 35.6 °F 93% 30.18 in 5.0 mi Calm Calm - N/A   Clear
7:54 AM 39.2 °F 37.4 °F 93% 30.18 in 10.0 mi Calm Calm - N/A   Clear
8:15 AM 39.2 °F 39.2 °F 100% 30.18 in 10.0 mi Calm Calm - N/A   Clear
8:34 AM 42.8 °F 41.0 °F 93% 30.19 in 10.0 mi Calm Calm - N/A   Clear
8:55 AM 46.4 °F 44.6 °F 93% 30.19 in 10.0 mi Calm Calm - N/A   Clear
9:15 AM 48.2 °F 42.8 °F 82% 30.19 in 10.0 mi Calm Calm - N/A   Clear
9:34 AM 51.8 °F 42.8 °F 71% 30.20 in 10.0 mi Calm Calm - N/A   Clear
9:55 AM 51.8 °F 42.8 °F 71% 30.20 in 10.0 mi Calm Calm - N/A   Clear
10:15 AM 53.6 °F 42.8 °F 67% 30.21 in 10.0 mi Calm Calm - N/A   Clear
10:34 AM 55.4 °F 42.8 °F 63% 30.21 in 10.0 mi Calm Calm - N/A   Clear
10:55 AM 55.4 °F 41.0 °F 58% 30.20 in 10.0 mi Calm Calm - N/A   Clear
11:15 AM 57.2 °F 39.2 °F 51% 30.20 in 10.0 mi Calm Calm - N/A   Clear
11:34 AM 57.2 °F 39.2 °F 51% 30.20 in 10.0 mi Calm Calm - N/A   Clear
11:55 AM 60.8 °F 39.2 °F 45% 30.20 in 10.0 mi Calm Calm - N/A   Clear
12:15 PM 60.8 °F 39.2 °F 45% 30.19 in 10.0 mi Calm Calm - N/A   Clear
12:34 PM 60.8 °F 39.2 °F 45% 30.19 in 10.0 mi Calm Calm - N/A   Clear
12:55 PM 62.6 °F 37.4 °F 39% 30.19 in 10.0 mi Calm Calm - N/A   Clear
1:14 PM 62.6 °F 37.4 °F 39% 30.18 in 10.0 mi Calm Calm - N/A   Clear
1:34 PM 64.4 °F 37.4 °F 37% 30.17 in 10.0 mi South 3.5 mph - N/A   Clear
1:55 PM 64.4 °F 37.4 °F 37% 30.17 in 10.0 mi West 4.6 mph - N/A   Clear
2:15 PM 64.4 °F 37.4 °F 37% 30.15 in 10.0 mi Calm Calm - N/A   Clear
2:34 PM 66.2 °F 35.6 °F 32% 30.15 in 10.0 mi NW 6.9 mph - N/A   Clear
2:55 PM 66.2 °F 37.4 °F 35% 30.14 in 10.0 mi West 4.6 mph - N/A   Clear
3:15 PM 66.2 °F 37.4 °F 35% 30.13 in 10.0 mi WSW 3.5 mph - N/A   Clear
3:34 PM 66.2 °F 37.4 °F 35% 30.13 in 10.0 mi Calm Calm - N/A   Clear
3:55 PM 68.0 °F 39.2 °F 35% 30.12 in 10.0 mi West 4.6 mph - N/A   Clear
4:15 PM 68.0 °F 37.4 °F 33% 30.12 in 10.0 mi Calm Calm - N/A   Clear
4:34 PM 68.0 °F 37.4 °F 33% 30.11 in 10.0 mi South 4.6 mph - N/A   Clear
4:55 PM 68.0 °F 37.4 °F 33% 30.11 in 10.0 mi Calm Calm - N/A   Clear
5:15 PM 66.2 °F 37.4 °F 35% 30.11 in 10.0 mi WSW 5.8 mph - N/A   Clear
5:35 PM 66.2 °F 37.4 °F 35% 30.11 in 10.0 mi Calm Calm - N/A   Clear
5:55 PM 68.0 °F 37.4 °F 33% 30.11 in 10.0 mi WSW 3.5 mph - N/A   Clear
6:14 PM 68.0 °F 37.4 °F 33% 30.10 in 10.0 mi Calm Calm - N/A   Clear
6:35 PM 66.2 °F 39.2 °F 37% 30.10 in 10.0 mi Calm Calm - N/A   Clear
6:55 PM 66.2 °F 39.2 °F 37% 30.10 in 10.0 mi WSW 5.8 mph - N/A   Clear
7:14 PM 64.4 °F 41.0 °F 42% 30.10 in 10.0 mi SW 4.6 mph - N/A   Clear
7:35 PM 62.6 °F 41.0 °F 45% 30.10 in 10.0 mi SW 4.6 mph - N/A   Clear
7:55 PM 60.8 °F 41.0 °F 48% 30.10 in 10.0 mi Calm Calm - N/A   Clear
8:15 PM 57.2 °F 39.2 °F 51% 30.10 in 10.0 mi Calm Calm - N/A   Clear
8:35 PM 57.2 °F 39.2 °F 51% 30.10 in 10.0 mi Calm Calm - N/A   Clear
8:54 PM 57.2 °F 39.2 °F 51% 30.10 in 10.0 mi Calm Calm - N/A   Clear
9:15 PM 53.6 °F 41.0 °F 62% 30.11 in 10.0 mi Calm Calm - N/A   Clear
9:35 PM 55.4 °F 39.2 °F 54% 30.10 in 10.0 mi Calm Calm - N/A   Clear
9:54 PM 53.6 °F 39.2 °F 58% 30.10 in 10.0 mi Calm Calm - N/A   Clear
10:15 PM 51.8 °F 41.0 °F 67% 30.11 in 10.0 mi Calm Calm - N/A   Clear
10:35 PM 51.8 °F 41.0 °F 67% 30.11 in 10.0 mi Calm Calm - N/A   Clear
10:54 PM 51.8 °F 39.2 °F 62% 30.10 in 10.0 mi Calm Calm - N/A   Clear
11:15 PM 48.2 °F 39.2 °F 71% 30.10 in 10.0 mi Calm Calm - N/A   Clear
11:35 PM 51.8 °F 39.2 °F 62% 30.09 in 10.0 mi Calm Calm - N/A   Clear
11:54 PM 51.8 °F 39.2 °F 62% 30.09 in 10.0 mi Calm Calm - N/A   Clear